Startseite
Über Mich
AHP4
Galerie
Sehschlangen
Tourenbuch
Bookmarks
Elektronik
Bewertung
Geschichten
[Tagesmessung] [Jahreswerte] [Information]

Messwerte vom 08.01.2022

Die letzten Messwerte von 23:58:45 Uhr:
KategorieMesswert
Temperatur [°C]2
Luftdruck [mBar]980
Sonneneinstrahlung0
Wind [km/h]6 aus Süd
Niederschlag [l/m²]0
rel.Luftfeucht.90%
CO2 [ppm]612

Diagramme
Messwerte vom 08.01.2022
Tagesaggregation
KategorieMinimumMaximumSchnittSumme
Temperatur [°C]051.7400
Luftdruck [mBar]980995990.5073
Sonneneinstrahlung23859.5765
Wind [km/h]14
rF [%]85.796.693.18
Niederschlag [l/m²]0.515
CO2 [ppm]398633445.3
Einordnung alsKalter Tag

Messungen an benachbarten Tagen: Zur Jahresaggregation 2022
Tabelle aller Messwerte
UhrzeitTemperatur [°C]Luftdruck [mBar]SonneWind [km/h]RichtungRegen [l/m²]rF [%]CO2 [ppm]
00:01:47 1 993 0 4 SO 0.2575 96.6 517
00:04:50 1 994 0 3 SO 0 96.6 504
00:07:47 1 994 0 2 S 0 96.6 509
00:10:47 1 993 0 1 S 0 96.6 515
00:13:48 1 994 0 4 SW 0 96.6 515
00:16:46 1 994 0 3 SO 0 96.6 513
00:19:50 1 994 0 5 SO 0 96.6 513
00:22:47 1 994 0 3 S 0 96.6 509
00:25:47 1 993 0 0 SO 0 96.6 504
00:28:47 1 994 0 6 S 0 96.6 500
00:31:45 1 993 0 5 SO 0.2575 96.6 503
00:34:47 1 994 0 1 SO 0 96.6 503
00:37:46 1 993 0 3 S 0 96.6 508
00:40:45 1 993 0 0 O 0 96.6 509
00:43:46 1 993 0 0 S 0 96.6 506
00:46:46 1 993 0 1 SO 0 96.6 503
00:49:48 1 993 0 0 SW 0 96.6 501
00:52:45 1 993 0 1 W 0 96.6 506
00:55:48 1 993 0 0 NO 0 96.6 503
00:58:46 1 994 0 1 S 0 96.6 512
01:01:46 1 993 0 0 SO 0 96.6 513
01:04:47 0 993 0 1 SO 0 96.6 509
01:07:49 0 993 0 3 SO 0 96.6 505
01:10:47 0 993 0 1 S 0 96.6 506
01:13:49 0 993 0 0 S 0 96.6 510
01:16:47 0 993 0 2 SW 0 96.6 515
01:19:48 0 993 0 0 S 0 96.6 522
01:22:46 0 993 0 1 SO 0 96.6 517
01:25:45 0 992 0 0 S 0 96.6 519
01:28:46 0 993 0 0 S 0 96.6 516
01:31:47 0 993 0 1 SO 0 96.6 510
01:34:47 0 993 0 2 SO 0 96.6 507
01:37:45 0 994 0 1 S 0 96.6 501
01:40:45 0 994 0 0 S 0 96.6 501
01:43:47 0 993 0 1 SO 0 96.6 501
01:46:45 0 993 0 1 S 0 96.6 504
01:49:46 0 993 0 2 N 0 96.6 507
01:52:45 0 993 0 1 0 96.6 507
01:55:45 0 993 0 0 S 0 96.6 504
01:58:46 0 993 0 1 S 0 96.6 507
02:01:46 1 992 0 1 S 0 96.6 509
02:04:48 1 992 0 2 S 0 96.6 500
02:07:46 1 993 0 0 S 0 96.6 501
02:10:47 0 993 0 0 S 0 96.6 494
02:13:45 0 993 0 6 SW 0 96.6 495
02:16:45 1 992 0 0 N 0 96.6 495
02:19:48 1 992 0 0 SO 0 96.6 497
02:22:47 1 993 0 1 NO 0 96.6 495
02:25:46 1 993 0 1 W 0 96.6 501
02:28:46 1 993 0 0 SO 0 96.6 498
02:31:47 1 993 0 1 SW 0 96.6 498
02:34:47 1 992 0 0 SO 0 96.6 498
02:37:47 1 992 0 6 S 0 96.6 495
02:40:46 1 993 0 1 O 0 96.6 486
02:43:46 1 993 0 1 SO 0 96.6 495
02:46:46 1 992 0 2 S 0 96.6 495
02:49:48 1 993 0 2 SW 0 96.6 486
02:52:46 1 992 0 2 SW 0 96.6 483
02:55:47 1 992 0 0 SW 0 96.6 484
02:58:48 1 992 0 3 NO 0 96.6 489
03:10:47 1 992 0 1 S 0 96.6 498
03:13:46 1 992 0 1 O 0 96.6 494
03:16:47 1 992 0 1 SO 0 96.6 495
03:19:47 1 993 0 1 S 0 96.6 492
03:22:45 1 993 0 7 O 0 96.6 492
03:25:47 1 993 0 1 N 0 96.6 487
03:28:47 1 993 0 0 SW 0 96.6 491
03:31:46 1 992 0 1 S 0 96.6 492
03:34:46 1 992 0 1 SW 0 96.6 497
03:37:49 1 993 0 1 SW 0 96.6 492
03:40:47 1 992 0 2 SO 0 96.6 489
03:43:47 1 993 0 0 SO 0 96.6 486
03:46:49 1 992 0 1 SO 0 96.6 484
03:49:49 1 992 0 1 SW 0 96.6 489
03:52:45 1 992 0 1 S 0 96.6 492
03:55:49 1 992 0 0 S 0 96.6 495
03:58:54 1 993 0 1 SW 0 96.6 498
04:01:47 1 993 0 0 SO 0 96.6 495
04:04:48 1 993 0 1 SO 0 96.6 489
04:07:49 1 993 0 0 SO 0 96.6 489
04:10:47 0 992 0 0 SO 0 96.6 486
04:13:47 0 993 0 2 S 0 96.6 489
04:16:45 0 993 0 0 S 0 96.6 495
04:19:48 0 992 0 1 SO 0 96.6 483
04:22:47 0 992 0 2 SO 0 96.6 480
04:25:45 0 993 0 0 S 0 96.6 474
04:28:47 1 993 0 0 SW 0 96.6 480
04:31:46 1 993 0 0 S 0 96.6 475
04:34:44 0 992 0 0 S 0 96.6 483
04:37:45 0 992 0 0 S 0 96.6 480
04:40:46 0 993 0 1 S 0 96.6 483
04:43:45 0 992 0 0 SO 0 96.6 479
04:46:45 0 992 0 2 O 0 96.6 477
04:49:44 0 993 0 1 S 0 96.6 477
04:52:46 1 993 0 0 S 0 96.6 474
04:55:45 1 993 0 1 S 0 96.6 474
04:58:48 1 992 0 0 SW 0 96.6 479
05:01:45 1 993 0 2 S 0 96.6 474
05:04:45 1 991 0 0 S 0 96.6 474
05:07:47 1 993 0 0 S 0 96.6 472
05:10:45 1 991 0 2 S 0 96.6 480
05:13:45 1 994 0 1 S 0 96.6 477
05:16:47 1 993 0 1 SW 0 96.6 468
05:19:47 1 994 0 1 SO 0 96.6 468
05:22:47 1 992 0 1 S 0 96.6 468
05:25:47 1 993 0 2 NW 0 96.6 469
05:28:49 1 992 0 2 SW 0 96.6 469
05:31:45 1 992 0 0 SO 0 96.6 472
05:34:48 1 993 0 0 S 0 96.6 469
05:37:45 1 993 0 2 S 0 96.6 468
05:40:46 1 993 0 0 SW 0 96.6 462
05:43:48 1 993 0 1 SW 0 96.6 460
05:46:47 1 993 0 1 O 0 96.6 460
05:49:46 1 992 0 1 SW 0 96.6 465
05:52:46 1 992 0 1 S 0 96.6 471
05:55:45 1 992 0 0 S 0 96.6 477
05:58:47 1 993 0 0 SW 0 96.6 471
06:01:46 1 992 0 0 SW 0 96.6 472
06:04:46 1 992 0 0 S 0 96.6 460
06:07:46 1 993 0 1 S 0 96.6 468
06:10:47 1 993 0 0 S 0 96.6 473
06:13:46 1 993 0 1 S 0 96.6 469
06:16:46 1 992 0 0 S 0 96.6 468
06:19:46 1 993 0 0 W 0 96.6 459
06:22:47 1 993 0 0 S 0 96.6 457
06:25:45 1 992 0 1 SW 0 96.6 458
06:28:46 1 993 0 0 S 0 96.6 471
06:31:47 1 993 0 2 O 0 96.6 468
06:34:49 1 993 0 0 S 0 96.6 468
06:37:50 1 993 0 3 SW 0 96.6 466
06:40:48 1 992 0 1 SW 0 96.6 466
06:43:50 1 993 0 0 SW 0 96.6 468
06:46:46 1 993 0 2 S 0 96.6 472
06:49:46 1 994 0 1 SO 0 96.6 474
06:52:47 1 993 0 1 SW 0 96.6 475
06:55:48 1 993 0 0 SO 0 96.6 472
06:58:47 1 994 0 1 SW 0 96.6 471
07:01:46 1 994 0 0 S 0 96.6 489
07:04:47 1 993 0 1 SO 0 96.6 497
07:07:47 1 993 0 0 S 0 96.6 511
07:10:46 1 994 0 0 SO 0 96.6 521
07:13:48 1 994 0 2 SW 0 96.6 526
07:16:46 1 994 0 0 SW 0 96.6 512
07:19:47 1 994 0 1 NW 0 96.6 504
07:22:47 1 993 0 3 SW 0 96.6 487
07:25:48 1 994 0 1 SO 0 96.6 494
07:28:46 1 994 0 0 S 0 96.6 503
07:31:46 1 994 0 3 W 0 96.6 487
07:34:48 1 994 0 2 SW 0 96.6 485
07:37:46 1 994 0 2 SW 0 96.6 491
07:40:46 1 994 0 0 W 0 96.6 496
07:43:47 1 994 0 4 SW 0 96.6 483
07:46:44 1 994 0 2 S 0 96.6 479
07:49:48 1 994 0 2 SW 0 96.6 480
07:52:45 1 994 0 1 S 0 96.6 475
07:55:44 1 993 0 2 O 0 96.6 462
07:58:48 1 993 0 1 SW 0 96.6 459
08:01:46 1 994 4 1 S 0 96.6 459
08:04:48 1 994 6 0 SO 0 96.6 457
08:07:46 1 994 10 0 W 0 96.6 449
08:10:48 1 994 14 0 S 0 96.6 446
08:13:47 1 994 20 0 SO 0 96.6 448
08:16:48 1 995 21 0 SW 0 96.6 448
08:19:49 1 994 20 0 S 0 96.6 451
08:22:49 1 995 25 2 SW 0 96.6 442
08:25:50 1 995 20 1 SW 0 96.6 445
08:28:45 1 994 29 1 W 0 96.6 439
08:31:48 1 994 32 0 SO 0 96.6 428
08:34:47 1 994 33 4 W 0 96.6 423
08:37:48 1 994 46 2 W 0 96.6 419
08:40:48 1 994 55 2 SW 0 96.6 416
08:43:49 1 994 65 0 SO 0 96.6 422
08:46:47 1 995 85 0 O 0 96.6 424
08:49:49 1 995 83 2 SW 0 96.6 419
08:52:48 1 994 78 0 SO 0 96.6 411
08:55:49 1 994 88 4 NW 0 96.6 413
08:58:48 1 994 98 1 SO 0 96.6 414
09:01:48 1 994 109 0 S 0 96.6 408
09:04:49 1 994 121 1 SW 0 96.6 408
09:07:47 1 994 128 2 SW 0 96.6 407
09:10:49 1 994 132 5 W 0 96.6 408
09:13:48 1 994 136 1 SW 0 96.6 407
09:16:49 1 994 143 0 SW 0 96.6 406
09:19:45 1 994 154 0 O 0 96.6 404
09:22:47 1 994 159 0 S 0 96.6 406
09:25:46 1 994 162 1 S 0 96.6 404
09:28:45 1 994 156 4 W 0 96.6 406
09:31:45 1 994 154 1 S 0 96.6 404
09:34:48 1 994 153 0 NO 0 96.6 406
09:37:48 1 994 155 4 W 0 96.6 407
09:40:48 1 994 158 0 SO 0 96.6 403
09:43:47 1 994 161 2 S 0 96.6 404
09:46:45 1 994 172 0 S 0 96.6 407
09:49:46 2 994 162 1 SO 0 96.6 404
09:52:47 2 994 172 3 S 0 96.6 402
09:55:47 2 994 173 4 SO 0 96.6 407
09:58:47 1 994 176 2 SW 0 96.6 404
10:01:46 1 994 188 3 SW 0 96.6 406
10:04:46 1 994 191 1 S 0 96.6 403
10:07:48 2 994 192 0 S 0 96.6 406
10:10:45 2 994 194 1 S 0 96.6 407
10:13:48 2 994 195 1 SW 0 96.6 407
10:16:46 2 994 198 2 SO 0 96.6 407
10:19:47 2 994 196 1 O 0 96.6 407
10:22:47 2 994 196 7 SW 0 96.6 406
10:25:47 2 994 195 4 SW 0 96.6 406
10:28:49 2 994 196 2 SO 0 96.6 407
10:31:48 2 994 198 4 SO 0 96.6 407
10:34:48 2 994 193 1 SW 0 96.6 407
10:37:46 2 994 200 0 S 0 96.6 404
10:40:49 2 994 197 2 S 0 96.6 407
10:43:48 2 994 187 2 SO 0 96.6 404
10:46:47 2 994 192 3 SW 0 96.6 406
10:49:47 2 993 193 2 N 0 96.6 403
10:52:46 2 993 193 4 NW 0 96.6 403
10:55:46 2 994 193 11 S 0 96.6 404
10:58:47 2 993 195 2 W 0 96.6 404
11:01:48 2 993 195 0 NW 0 96.6 403
11:04:47 2 994 204 0 SO 0 96.6 407
11:07:46 2 994 199 6 S 0 96.6 404
11:10:47 2 994 202 2 S 0 96.6 404
11:13:48 2 993 208 4 SO 0 96.6 407
11:16:46 3 994 208 1 S 0 96.6 407
11:19:46 3 994 210 6 S 0 96.6 401
11:22:48 3 994 203 3 SW 0 96.6 405
11:25:50 3 994 207 12 W 0 96.6 407
11:28:48 3 994 205 2 S 0 96.6 406
11:31:47 3 994 209 2 N 0 96.6 406
11:34:46 3 994 210 1 S 0 96.6 406
11:37:47 3 994 199 1 SW 0 96.6 404
11:40:48 3 994 209 2 SW 0 96.6 407
11:43:46 3 993 209 4 O 0 96.6 406
11:46:47 3 994 208 1 N 0 96.6 407
11:49:47 3 993 210 0 S 0 96.6 407
11:52:46 3 994 199 5 SW 0 96.6 407
11:55:48 3 993 206 7 NW 0 96.6 404
11:58:46 3 994 205 1 SW 0 96.6 404
12:01:48 3 993 206 2 S 0 96.6 407
12:04:47 3 994 210 11 NO 0 96.6 404
12:07:49 4 993 203 2 SW 0 96.6 403
12:10:46 4 993 206 3 SW 0 96.6 404
12:13:46 4 994 203 5 S 0 96.4 405
12:16:50 5 994 206 7 W 0 94.9 404
12:19:49 5 993 208 9 SO 0 94.9 407
12:22:47 5 993 208 5 S 0 94.8 407
12:25:46 5 993 216 4 SW 0 94.3 406
12:28:48 5 994 207 3 SO 0 93.3 408
12:31:49 5 994 219 2 NO 0 92.8 404
12:34:48 5 993 206 3 SW 0 92.8 407
12:37:48 5 993 215 8 S 0 92.8 404
12:40:47 5 993 214 3 W 0 92.9 407
12:43:52 5 994 214 6 NW 0 92.7 405
12:46:47 5 991 218 4 W 0 92.6 407
12:49:48 5 993 215 11 W 0 92.7 402
12:52:47 5 993 215 4 O 0 90.9 404
12:55:46 5 993 210 4 W 0 90.1 407
12:58:47 4 993 209 3 SW 0 90.4 407
13:01:47 4 992 212 1 S 0 91 406
13:04:46 4 992 212 5 SW 0 91.5 405
13:07:48 4 993 218 4 S 0 92.7 404
13:10:48 5 992 218 3 SO 0 93.3 407
13:13:46 5 992 213 2 O 0 92.9 407
13:16:47 5 993 216 2 SO 0 91.6 402
13:19:44 5 992 213 3 S 0 91.3 407
13:22:48 4 992 213 1 SO 0 91.1 407
13:25:47 5 991 221 7 SW 0 92 401
13:28:47 5 993 219 2 O 0 91.6 407
13:31:47 5 992 222 5 SO 0 91.6 404
13:34:47 5 993 226 3 NO 0 91.1 401
13:37:47 5 992 217 3 O 0 89.6 408
13:40:49 5 992 216 4 SW 0 88.5 407
13:43:46 5 993 217 10 S 0 88.4 404
13:46:46 5 992 215 2 S 0 89 404
13:49:51 4 992 212 2 S 0 89.7 407
13:52:45 4 992 215 2 S 0 89.8 398
13:55:46 4 992 213 8 S 0 90.2 407
13:58:48 4 992 213 2 S 0 90.7 407
14:01:49 4 992 208 8 SW 0 90.6 401
14:04:49 4 992 198 2 SO 0 90.4 407
14:07:47 4 992 209 9 S 0 91 406
14:10:47 4 991 217 8 SW 0 90.9 404
14:13:47 4 992 218 11 NW 0 91.1 404
14:16:47 4 991 217 2 S 0 90 407
14:19:50 4 992 216 2 W 0 90 408
14:22:48 3 992 213 0 O 0 90 404
14:25:45 3 991 214 0 SW 0 90.6 407
14:28:46 3 991 231 5 S 0 91.3 407
14:31:46 4 992 238 4 S 0 91.4 404
14:34:48 4 992 238 9 SW 0 91.7 407
14:37:47 4 991 236 1 SW 0 92 404
14:40:52 4 991 221 3 SO 0 92.1 405
14:43:46 4 992 233 5 0 91.5 407
14:46:47 4 992 222 0 SO 0 91.3 407
14:49:46 4 991 233 1 S 0 91.1 404
14:52:46 4 991 236 0 S 0 91.2 404
14:55:47 4 991 235 0 S 0 91.9 404
14:58:48 4 991 228 2 S 0 92.5 407
15:01:48 4 991 219 6 SW 0 91.7 405
15:04:48 4 991 215 4 S 0 89.7 407
15:07:46 4 991 205 5 W 0 89.6 407
15:10:47 4 991 172 1 S 0 89.7 407
15:13:46 4 991 166 2 S 0 89.5 404
15:16:46 4 991 163 7 SW 0 90.1 407
15:19:46 3 991 162 7 W 0 89.8 406
15:22:46 3 991 156 2 O 0 89.9 407
15:25:47 3 991 140 0 S 0 90.2 407
15:28:44 3 991 127 3 S 0 90.4 403
15:31:46 3 991 115 2 S 0 90.8 407
15:34:47 3 991 101 6 SW 0 90.9 404
15:37:45 3 991 95 4 O 0 90.8 404
15:40:45 3 991 94 3 S 0 90.5 404
15:43:47 3 991 101 2 SW 0 90.5 407
15:46:46 3 991 91 4 SW 0 90.1 407
15:49:47 3 991 77 6 NO 0 89.4 407
15:52:48 3 991 77 4 SW 0 88.3 406
15:55:49 3 991 86 11 S 0 88.1 404
15:58:46 3 991 85 3 S 0 86.3 407
16:01:48 3 991 90 3 SO 0 86.4 404
16:04:46 3 991 104 7 SO 0 86.8 407
16:07:48 3 991 113 12 S 0 86.2 407
16:10:48 3 991 98 2 W 0 85.7 407
16:13:49 3 991 69 3 SW 0 86.5 404
16:16:48 3 991 66 5 SO 0 86.6 407
16:19:46 3 991 70 8 O 0 87 406
16:22:47 3 991 63 6 SO 0 87.4 404
16:25:46 3 991 48 4 SW 0 87.5 404
16:28:46 3 991 33 0 S 0 87.6 404
16:31:45 3 991 33 2 0 88.5 404
16:34:47 3 991 33 4 S 0 88.8 407
16:37:49 2 991 29 9 SO 0 88.2 406
16:40:47 2 991 24 0 SO 0 87.9 407
16:43:48 2 990 18 8 SO 0 88.1 404
16:46:49 2 990 13 10 SO 0 87.8 404
16:49:48 2 991 9 7 SO 0 86.6 403
16:52:45 2 991 6 4 SO 0 86.5 404
16:55:46 2 991 4 4 SW 0 87.1 407
16:58:46 2 990 3 2 SO 0 87.3 407
17:01:44 2 991 0 4 S 0 87.2 404
17:04:46 2 990 0 5 SW 0 86.7 404
17:07:46 2 990 0 7 S 0 86.3 405
17:10:48 2 990 0 4 SW 0 86.4 407
17:13:45 2 991 0 4 SO 0 86.8 404
17:16:45 2 990 0 3 W 0 86.8 406
17:19:47 2 990 0 3 SW 0 86.8 406
17:22:46 2 990 0 2 SW 0 87 407
17:25:44 1 991 0 1 SO 0 87.1 407
17:28:46 1 989 0 2 SO 0 87.7 404
17:31:45 1 990 0 1 O 0 88.3 407
17:34:45 1 990 0 1 SO 0 88.7 404
17:37:46 1 990 0 2 S 0 89 406
17:40:45 1 989 0 3 SO 0 89.1 407
17:43:49 1 989 0 2 SO 0 89.3 407
17:46:45 1 989 0 5 S 0 89.1 407
17:49:47 1 990 0 2 SO 0 89 404
17:52:46 1 989 0 6 SO 0 88.8 404
17:55:47 1 989 0 3 SO 0 88.8 404
17:58:47 1 989 0 2 SO 0 89.3 407
18:01:47 1 988 0 0 SW 0 89.6 407
18:04:45 1 989 0 1 O 0 90.1 404
18:07:48 1 988 0 6 S 0 90.1 404
18:10:47 1 988 0 2 SO 0 90.1 404
18:13:46 1 989 0 4 S 0 90.2 407
18:16:48 1 988 0 4 S 0 90 407
18:19:46 1 988 0 2 S 0 89.6 407
18:22:47 1 988 0 4 SO 0 89.2 407
18:25:45 1 988 0 8 S 0 89.2 404
18:28:45 1 988 0 3 S 0 89.3 408
18:31:48 1 988 0 2 SO 0 89.4 404
18:34:47 1 988 0 1 SW 0 89.7 407
18:37:47 1 988 0 4 S 0 89.7 407
18:40:47 1 988 0 2 SO 0 89.6 404
18:43:46 1 988 0 6 S 0 89.6 405
18:46:47 1 987 0 6 S 0 89.5 403
18:49:45 1 987 0 4 S 0 89.4 406
18:52:46 1 987 0 5 S 0 89.3 404
18:55:46 1 987 0 3 SO 0 89.1 404
18:58:47 1 987 0 3 SO 0 89.1 407
19:01:45 1 987 0 2 S 0 89 407
19:04:45 0 987 0 7 S 0 89.1 407
19:07:46 0 988 0 5 S 0 89.3 407
19:10:45 0 987 0 4 S 0 89.9 404
19:13:47 0 987 0 2 SO 0 90.2 404
19:16:46 0 987 0 4 SO 0 90.5 406
19:19:45 0 987 0 1 S 0 90.6 407
19:22:44 0 987 0 3 O 0 90.9 404
19:25:46 0 987 0 4 S 0 91 407
19:28:44 0 987 0 4 SO 0 91 407
19:31:45 0 987 0 3 SO 0 91.2 406
19:34:45 0 987 0 2 O 0 91.3 404
19:37:46 0 987 0 5 S 0 91.4 407
19:40:44 0 987 0 8 S 0 91.6 406
19:43:46 0 986 0 8 O 0 91.6 407
19:46:48 0 987 0 14 SO 0 91.7 407
19:49:45 1 987 0 6 S 0 91.5 404
19:52:46 1 986 0 12 SW 0 91.5 403
19:55:46 1 986 0 2 SO 0 91.5 404
19:58:46 1 986 0 8 S 0 91.4 407
20:01:47 1 986 0 4 SO 0 91.3 404
20:04:44 1 986 0 8 SO 0 91.2 404
20:07:48 1 985 0 8 SO 0 91 406
20:10:47 1 985 0 6 SO 0 90.7 407
20:13:49 1 985 0 4 SO 0 90.6 407
20:16:46 1 985 0 8 S 0 90.4 406
20:19:48 1 985 0 4 SW 0 90.3 404
20:22:46 1 985 0 10 S 0 90.2 404
20:25:45 1 985 0 10 O 0 90.1 404
20:28:45 1 985 0 9 S 0 89.8 405
20:31:47 1 985 0 5 SO 0 89.8 407
20:34:47 1 984 0 6 SW 0 89.4 405
20:37:46 1 984 0 5 SO 0 89.4 407
20:40:48 1 984 0 13 SW 0 89.1 407
20:43:48 1 984 0 13 SO 0 88.6 407
20:46:45 1 984 0 4 S 0 88.4 407
20:49:44 1 984 0 5 S 0 88.4 408
20:52:47 1 984 0 5 SO 0 88.3 404
20:55:46 1 984 0 4 SO 0 88.2 407
20:58:46 1 984 0 6 SO 0 88.4 404
21:01:46 1 984 0 4 SO 0 88.4 402
21:04:46 2 984 0 7 S 0 88.3 405
21:07:47 2 984 0 1 SW 0 88.3 406
21:10:48 2 984 0 4 S 0 88.2 407
21:13:46 2 984 0 3 S 0 88.3 407
21:16:45 2 984 0 9 S 0 88.2 403
21:19:46 2 984 0 7 SW 0 87.9 403
21:22:47 2 984 0 6 SO 0 87.9 407
21:25:46 2 984 0 7 S 0 88.1 405
21:28:47 2 984 0 11 W 0 88.4 408
21:31:45 2 984 0 2 S 0 88.4 405
21:34:47 2 984 0 4 SO 0 88.4 407
21:37:45 2 983 0 3 S 0 88.5 406
21:40:47 2 983 0 3 SO 0 88.5 407
21:43:45 2 984 0 3 S 0 88.6 409
21:46:47 2 984 0 4 S 0 88.8 415
21:49:46 2 983 0 7 S 0 89 412
21:52:47 2 983 0 7 SW 0 89 413
21:55:48 2 983 0 4 S 0 88.9 410
21:58:46 2 983 0 3 SO 0 88.5 415
22:01:51 2 983 0 7 SO 0 88.5 419
22:04:47 2 983 0 3 SW 0 88.5 425
22:07:50 2 982 0 13 S 0 88.6 422
22:10:48 2 982 0 5 SO 0 88.8 423
22:13:49 2 983 0 13 SO 0 88.8 427
22:16:48 2 982 0 8 S 0 89 422
22:19:46 2 981 0 2 O 0 89.1 425
22:22:44 2 981 0 6 S 0 89.1 416
22:25:48 2 982 0 8 O 0 89 413
22:28:46 2 982 0 6 SO 0 89 418
22:31:49 2 982 0 2 SO 0 88.8 428
22:34:49 2 981 0 5 O 0 88.6 427
22:37:52 2 982 0 4 SO 0 88.5 422
22:40:48 2 981 0 5 S 0 88.7 428
22:43:45 2 981 0 5 S 0 88.5 434
22:46:44 2 981 0 5 S 0 88.3 433
22:49:49 2 982 0 7 SO 0 88.4 426
22:52:45 2 981 0 6 S 0 88.4 615
22:55:46 2 981 0 2 SO 0 88.4 612
22:58:47 2 981 0 3 S 0 88.2 607
23:01:47 2 981 0 2 S 0 88.2 607
23:04:49 2 981 0 1 NO 0 88.4 610
23:07:47 2 980 0 9 S 0 88.5 616
23:10:47 2 980 0 0 SW 0 88.6 615
23:13:45 2 980 0 3 S 0 88.8 612
23:16:47 2 980 0 3 SO 0 89.1 620
23:19:47 2 980 0 3 S 0 89.3 627
23:22:45 2 980 0 5 S 0 89.5 627
23:25:47 2 980 0 5 SW 0 89.9 629
23:28:47 2 980 0 6 SO 0 90 617
23:31:47 1 980 0 1 SO 0 90.1 622
23:34:49 2 980 0 7 0 90.5 622
23:37:47 2 980 0 7 SO 0 90.7 621
23:40:47 2 980 0 5 SO 0 90.6 628
23:43:47 2 980 0 10 SO 0 90.5 624
23:46:47 2 980 0 10 SW 0 90.5 626
23:49:49 2 980 0 4 SO 0 90.3 633
23:52:44 2 980 0 7 S 0 90.2 627
23:55:47 2 980 0 4 S 0 90.1 619
23:58:45 2 980 0 6 S 0 90 612

Letzte Änderung : 04-Jan-2022
Copyright Jens Köhler, Wolfsburg, Obere Dorfstraße 10d